Regional Weather Roundup
Issued by NWS Little Rock, AR

Home | Current Version | Previous Version | Graphics & Text | Print | Product List | Glossary On
Versions: 1 2 3 4 5 6 7 8 9 10 11 12 13 14 15 16 17 18 19 20 21 22 23 24 25 26 27 28 29 30 31
000
ASUS44 KLZK 210905
RWRLZK

WEATHER ROUNDUP FOR ARKANSAS
NATIONAL WEATHER SERVICE LITTLE ROCK AR
400 AM CDT SAT APR 21 2018

NOTE: "FAIR" INDICATES FEW OR NO CLOUDS BELOW 12,000 FEET WITH NO
SIGNIFICANT WEATHER AND/OR OBSTRUCTIONS TO VISIBILITY.

ARZ001-003-010-029-211000-
NORTHWEST ARKANSAS

CITY           SKY/WX    TMP DP  RH WIND       PRES   REMARKS
FAYETTEVILLE   PTCLDY    48  32  53 CALM      30.21R
FORT SMITH     CLOUDY    51  36  56 N5        30.19R
HARRISON       CLOUDY    48  28  46 CALM      30.22S
BENTONVILLE    CLOUDY    52  27  38 NE6       30.24R
ROGERS         CLOUDY    49  29  46 NE7       30.23R
SILOAM SPGS    CLOUDY    51  28  41 E6        30.21S
$$

ARZ004-005-016-211000-
NORTH CENTRAL ARKANSAS

CITY           SKY/WX    TMP DP  RH WIND       PRES   REMARKS
BATESVILLE     CLOUDY    43  34  70 CALM      30.23F
FLIPPIN        PTCLDY    47  29  49 N3        30.24S
MTN HOME       PTCLDY    47  29  49 E3        30.22F
$$

ARZ040-041-211000-
WEST CENTRAL ARKANSAS

CITY           SKY/WX    TMP DP  RH WIND       PRES   REMARKS
MENA           CLOUDY    45  43  93 CALM      30.16R
MOUNT IDA      PTCLDY    43  40  89 CALM      30.14S
$$

ARZ009-017-025-026-028-211000-
NORTHEAST ARKANSAS

CITY           SKY/WX    TMP DP  RH WIND       PRES   REMARKS
CORNING        FAIR      50  36  57 NE7       30.27R
JONESBORO      FAIR      46  37  71 NE7       30.24F
WALNUT RIDGE   FAIR      45  37  73 NE8       30.25S
BLYTHEVILLE    FAIR      49  34  56 E8        30.25S
$$

ARZ022-023-033-042-044-211000-
CENTRAL ARKANSAS

CITY           SKY/WX    TMP DP  RH WIND       PRES   REMARKS
LITTLE ROCK    PTCLDY    48  40  73 N3        30.20R
N LITTLE ROCK    N/A     49  38  66 E5        30.17R
JACKSONVILLE   CLOUDY    47  38  69 E6        30.19R
CONWAY         PTSUNNY   46  41  81 CALM      30.19S
SEARCY         FAIR      49  37  63 NE7       30.21S
HOT SPRINGS    CLEAR     47  42  83 CALM      30.17S
RUSSELLVILLE   CLOUDY    47  36  65 CALM      30.18S
CLINTON        FAIR      37  36  93 CALM      30.22S
$$

ARZ036-211000-
EAST ARKANSAS

CITY           SKY/WX    TMP DP  RH WIND       PRES   REMARKS
WEST MEMPHIS   FAIR      51  35  54 E3        30.22R
$$

ARZ050-053-066-070-073-211000-
SOUTHWEST ARKANSAS

CITY           SKY/WX    TMP DP  RH WIND       PRES   REMARKS
ARKADELPHIA    FAIR      44  42  93 CALM      30.18
CAMDEN         FAIR      45  41  87 CALM      30.16R
TEXARKANA      PTCLDY    48  42  80 E3        30.12F
EL DORADO      FAIR      45  43  93 CALM      30.15S
DE QUEEN       MOCLDY    46  44  93 NE3       30.13S
$$

ARZ056-057-069-211000-
SOUTHEAST ARKANSAS

CITY           SKY/WX    TMP DP  RH WIND       PRES   REMARKS
PINE BLUFF     FAIR      50  43  77 CALM      30.18R
STUTTGART      FAIR      50  41  71 E6        30.19S
MONTICELLO     FAIR      46  42  86 NE3       30.15F

$$






USA.gov is the U.S. government's official web portal to all federal, state and local government web resources and services.